CSC2534 ZPPP-ZPPP

Flight info

Callsign CSC2534
Flight time N/A
Altitude 2000
Route LOCAL
Aircraft A320/M-VGDW/C

Departure

Time 2026-05-04 16:00
Airport Kunming Changshui International Airport (ZPPP)

Arrival

Time N/A
Airport Kunming Changshui International Airport (ZPPP)
Time Latitude Longitude Altitude Speed Heading
2026-05-04 15:39 25.11438 102.93511 6912 ft 0 kts 218°
2026-05-04 15:48 25.11442 102.93514 6912 ft 2 kts 218°
2026-05-04 15:48 25.11465 102.93535 6912 ft 2 kts 218°
2026-05-04 15:49 25.11477 102.93545 6912 ft 2 kts 218°
2026-05-04 15:49 25.11489 102.93555 6912 ft 2 kts 218°
2026-05-04 15:49 25.11501 102.93565 6912 ft 2 kts 218°
2026-05-04 15:49 25.11510 102.93579 6912 ft 2 kts 259°
2026-05-04 15:50 25.11509 102.93595 6912 ft 2 kts 295°
2026-05-04 15:50 25.11505 102.93601 6912 ft 1 kts 315°
2026-05-04 15:50 25.11502 102.93605 6912 ft 0 kts 309°
2026-05-04 15:54 25.11504 102.93604 6912 ft 0 kts 309°
2026-05-04 15:54 25.11510 102.93594 6912 ft 3 kts 309°
2026-05-04 15:54 25.11550 102.93540 6912 ft 16 kts 308°
2026-05-04 15:55 25.11649 102.93418 6912 ft 24 kts 307°
2026-05-04 15:55 25.11777 102.93417 6912 ft 21 kts 38°
2026-05-04 15:55 25.11892 102.93516 6912 ft 20 kts 38°
2026-05-04 15:55 25.12006 102.93617 6912 ft 21 kts 39°
2026-05-04 15:56 25.12129 102.93703 6912 ft 20 kts
2026-05-04 15:56 25.12245 102.93698 6912 ft 17 kts 37°
2026-05-04 15:56 25.12343 102.93783 6912 ft 17 kts 37°
2026-05-04 15:56 25.12443 102.93870 6912 ft 18 kts 39°
2026-05-04 15:57 25.12545 102.93960 6912 ft 19 kts 38°
2026-05-04 15:57 25.12653 102.94052 6912 ft 19 kts 39°
2026-05-04 15:57 25.12766 102.94141 6912 ft 19 kts
2026-05-04 15:57 25.12861 102.94054 6912 ft 18 kts 293°
2026-05-04 15:58 25.12808 102.93948 6912 ft 16 kts 219°
2026-05-04 15:58 25.12792 102.93934 6912 ft 0 kts 218°
2026-05-04 15:59 25.12696 102.93848 6912 ft 50 kts 218°
2026-05-04 15:59 25.12241 102.93455 6913 ft 112 kts 219°
2026-05-04 15:59 25.11490 102.92799 6913 ft 163 kts 218°
2026-05-04 15:59 25.10541 102.91956 7240 ft 179 kts 219°
2026-05-04 16:00 25.09549 102.91090 7747 ft 185 kts 217°
2026-05-04 16:00 25.08527 102.90216 8376 ft 188 kts 218°
2026-05-04 16:00 25.07494 102.89339 8871 ft 194 kts 218°
2026-05-04 16:00 25.06358 102.88384 9021 ft 217 kts 218°
2026-05-04 16:01 25.05074 102.87281 9002 ft 250 kts 219°
2026-05-04 16:01 25.03629 102.86036 9007 ft 272 kts 218°
2026-05-04 16:01 25.02132 102.84759 9004 ft 276 kts 218°
2026-05-04 16:01 25.00590 102.83460 9007 ft 276 kts 218°
2026-05-04 16:02 24.99062 102.82185 9015 ft 277 kts 218°
2026-05-04 16:02 24.97507 102.80899 9028 ft 276 kts 213°
2026-05-04 16:02 24.93844 102.80751 8971 ft 285 kts 149°
2026-05-04 16:03 24.92374 102.82219 8990 ft 289 kts 128°
2026-05-04 16:03 24.91494 102.84225 8969 ft 294 kts 103°
2026-05-04 16:03 24.91473 102.86454 8950 ft 297 kts 78°
2026-05-04 16:03 24.92335 102.88520 8935 ft 298 kts 51°
2026-05-04 16:04 24.93917 102.89942 8963 ft 297 kts 24°
2026-05-04 16:04 24.97772 102.91586 8700 ft 288 kts 21°
2026-05-04 16:04 24.99581 102.92419 8570 ft 278 kts 23°
2026-05-04 16:05 25.01334 102.93269 8452 ft 267 kts 23°
2026-05-04 16:05 25.02999 102.94060 8392 ft 257 kts 22°
2026-05-04 16:05 25.06311 102.95592 8474 ft 259 kts 22°
2026-05-04 16:06 25.07986 102.96349 8445 ft 258 kts 21°
2026-05-04 16:06 25.12164 102.98317 8440 ft 234 kts 22°
2026-05-04 16:07 25.14162 102.99256 8519 ft 228 kts 22°
2026-05-04 16:07 25.18024 103.00834 8333 ft 168 kts 346°
2026-05-04 16:08 25.18907 103.00129 8308 ft 156 kts 289°
2026-05-04 16:08 25.17566 102.98229 8096 ft 159 kts 199°